WetterOnline ( https://www.wetteronline.de )

Wetter aktuell Rumo

Aktuelles Wetter: Reschenpass (1461m)

6-stündlich | Neueste Meldungen
Ortszeit Temperatur Wetter
Di, 12.11. 13:00 -0.0° C bedeckt
Di, 12.11. 7:00 -1.0° C leichter Schneefall
Di, 12.11. 1:00 -1.4° C leichter Schneefall
Mo, 11.11. 19:00 -2.4° C leichter Schneefall
Mo, 11.11. 13:00 0.4° C wolkig
Mo, 11.11. 7:00 -4.2° C leicht bewölkt
Mo, 11.11. 1:00 -3.6° C wolkenlos
So, 10.11. 19:00 -1.4° C wolkenlos
Ortszeit Temperatur Wetter
Di, 12.11. 16:00 -0.2° C bedeckt
Di, 12.11. 15:55 0° C bedeckt
Di, 12.11. 15:00 -0.2° C bedeckt
Di, 12.11. 14:55 0° C bewölkt
Di, 12.11. 14:00 0.0° C bedeckt
Di, 12.11. 13:55 0° C bewölkt
Di, 12.11. 13:00 -0.0° C bedeckt
Di, 12.11. 12:55 0° C bewölkt
Di, 12.11. 12:00 0.0° C bedeckt
Ortszeit Relative Feuchte Sichtweite
Di, 12.11. 13:00 83% 7 km
Di, 12.11. 7:00 95% 1.6 km
Di, 12.11. 1:00 96% 1.2 km
Mo, 11.11. 19:00 97% 1.0 km
Mo, 11.11. 13:00 73% 10 km
Mo, 11.11. 7:00 96% 20 km
Mo, 11.11. 1:00 89% 10 km
So, 10.11. 19:00 78% 12 km
Ortszeit Relative Feuchte Sichtweite
Di, 12.11. 16:00 84% 4.0 km
Di, 12.11. 15:55 80% 4.0 km
Di, 12.11. 15:00 83% 7 km
Di, 12.11. 14:55 80% 7 km
Di, 12.11. 14:00 86% 7 km
Di, 12.11. 13:55 86% 7 km
Di, 12.11. 13:00 83% 7 km
Di, 12.11. 12:55 80% 7 km
Di, 12.11. 12:00 84% 7 km
Ortszeit Niederschlagsmenge Niederschlagsart
Di, 12.11. 13:00 0.2 l/m2 in 6 Std. -
Di, 12.11. 7:00 2 l/m2 in 12 Std. Schnee
Di, 12.11. 1:00 0.8 l/m2 in 6 Std. Schnee
Mo, 11.11. 19:00 0.4 l/m2 in 12 Std. Schnee
Mo, 11.11. 13:00 0.0 l/m2 in 6 Std. -
Mo, 11.11. 7:00 0.0 l/m2 in 12 Std. -
Mo, 11.11. 1:00 0.0 l/m2 in 6 Std. -
So, 10.11. 19:00 0.0 l/m2 in 12 Std. -
Ortszeit Niederschlagsmenge Niederschlagsart
Di, 12.11. 16:00 keine Meldung -
Di, 12.11. 15:55 keine Meldung -
Di, 12.11. 15:00 keine Meldung -
Di, 12.11. 14:55 keine Meldung -
Di, 12.11. 14:00 keine Meldung -
Di, 12.11. 13:55 keine Meldung -
Di, 12.11. 13:00 keine Meldung -
Di, 12.11. 12:55 keine Meldung -
Di, 12.11. 12:00 keine Meldung -
Ortszeit Stärke Spitze Richtung
km/h Bft. km/h Grad Sektor
Di, 12.11. 13:00 13 3 - 50° NO
Di, 12.11. 7:00 9 2 - 30° NO
Di, 12.11. 1:00 15 3 - 230° SW
Mo, 11.11. 19:00 15 3 - 200° S
Mo, 11.11. 13:00 15 3 - 200° S
Mo, 11.11. 7:00 0 0 - - -
Mo, 11.11. 1:00 4 1 - 30° NO
So, 10.11. 19:00 4 1 - 20° N
Ortszeit Stärke Spitze Richtung
km/h Bft. km/h Grad Sektor
Di, 12.11. 16:00 15 3 - 50° NO
Di, 12.11. 15:55 15 3 37 50° NO
Di, 12.11. 15:00 15 3 - 50° NO
Di, 12.11. 14:55 15 3 37 50° NO
Di, 12.11. 14:00 13 3 - 50° NO
Di, 12.11. 13:55 13 3 37 50° NO
Di, 12.11. 13:00 13 3 - 50° NO
Di, 12.11. 12:55 13 3 35 50° NO
Di, 12.11. 12:00 13 3 - 50° NO
Ortszeit Untergrenze Bedeckung Gattung
total tief tief mittel hoch
Di, 12.11. 13:00 600 m 8/8 8/8 Sc - -
Di, 12.11. 7:00 150 m 8/8 8/8 St - -
Di, 12.11. 1:00 180 m 8/8 8/8 St - -
Mo, 11.11. 19:00 150 m 8/8 8/8 St - -
Mo, 11.11. 13:00 750 m 7/8 3/8 Sc Ac -
Mo, 11.11. 7:00 5400 m 3/8 3/8 - - Ci
Mo, 11.11. 1:00 - 0/8 0/8 - - -
So, 10.11. 19:00 - 0/8 0/8 - - -
Ortszeit Bedeckungsgrad in Achtel und Wolkenuntergrenze
Di, 12.11. 16:00 8(600m)
Di, 12.11. 15:55 8(600m)
Di, 12.11. 15:00 3(450m) 7(900m)
Di, 12.11. 14:55 3-4(450m) 5-7(900m)
Di, 12.11. 14:00 3(450m) 7(900m)
Di, 12.11. 13:55 3-4(450m) 5-7(900m)
Di, 12.11. 13:00 3(600m) 7(900m)
Di, 12.11. 12:55 3-4(600m) 5-7(900m)
Di, 12.11. 12:00 3(600m) 7(900m)
Ortszeit Stationsdruck (hPa) Tendenz (hPa in 3 Std.)
Di, 12.11. 13:00 840 - 1,5
Di, 12.11. 7:00 842 - 1,1
Di, 12.11. 1:00 844 - 1,2
Mo, 11.11. 19:00 846 - 0,3
Mo, 11.11. 13:00 848 - 2,6
Mo, 11.11. 7:00 851 - 0,5
Mo, 11.11. 1:00 851 + 0,9
So, 10.11. 19:00 849 + 2,9
Ortszeit Stationsdruck (hPa) Tendenz (hPa in 3 Std.)
Di, 12.11. 16:00 839 - 1,2
Di, 12.11. 15:55 - keine Meldung
Di, 12.11. 15:00 839 - 0,9
Di, 12.11. 14:55 - keine Meldung
Di, 12.11. 14:00 840 - 1,6
Di, 12.11. 13:55 - keine Meldung
Di, 12.11. 13:00 840 - 1,5
Di, 12.11. 12:55 - keine Meldung
Di, 12.11. 12:00 840 - 1,7
Ortszeit Schneehöhe (cm)
Di, 12.11. 13:00 -
Di, 12.11. 7:00 6
Di, 12.11. 1:00 -
Mo, 11.11. 19:00 3
Mo, 11.11. 13:00 -
Mo, 11.11. 7:00 2
Mo, 11.11. 1:00 -
So, 10.11. 19:00 -
Ortszeit Schneehöhe (cm)
Di, 12.11. 16:00 -
Di, 12.11. 15:55 -
Di, 12.11. 15:00 -
Di, 12.11. 14:55 -
Di, 12.11. 14:00 -
Di, 12.11. 13:55 -
Di, 12.11. 13:00 -
Di, 12.11. 12:55 -
Di, 12.11. 12:00 -
Link zu dieser Seite / Seite empfehlen

Das Wetter in ...